DW2047 Weather Reports


Display with metric or nautical units.
time (UTC)temp
F
wind
direction
speed
MPH
gust
MPH
rain 1hr
in
rain 24hr
in
rain mn
in
humidity
%
barometer
mb
20260906044017 83 155 2.0 6.0 0.00 0.00 0.00 72 1012.8
20260906043602 83 148 1.0 6.0 0.00 0.00 0.00 72 1012.7
20260906043029 83 142 2.0 5.0 0.00 0.00 0.00 72 1012.7
20260906042508 83 143 3.0 4.0 0.00 0.00 0.00 71 1012.6
20260906042047 83 143 1.0 4.0 0.00 0.00 0.00 70 1012.6
20260906041517 84 143 1.0 4.0 0.00 0.00 0.00 70 1012.6
20260906041058 84 143 1.0 4.0 0.00 0.00 0.00 69 1012.6
20260906040535 84 143 1.0 4.0 0.00 0.00 0.00 69 1012.5
20260906040006 84 143 2.0 5.0 0.00 0.00 0.00 68 1012.5
20260906035546 84 143 1.0 10.0 0.00 0.00 0.00 68 1012.5
20260906035024 85 129 4.0 10.0 0.00 0.00 0.00 68 1012.5
20260906034605 85 139 1.0 8.0 0.00 0.00 0.00 67 1012.5
20260906034034 85 140 2.0 8.0 0.00 0.00 0.00 67 1012.5
20260906033511 85 119 3.0 7.0 0.00 0.00 0.00 66 1012.5
20260906033048 85 118 1.0 7.0 0.00 0.00 0.00 66 1012.5
20260906032526 85 112 1.0 7.0 0.00 0.00 0.00 66 1012.6
20260906032105 85 133 2.0 5.0 0.00 0.00 0.00 65 1012.5
20260906031535 86 93 1.0 5.0 0.00 0.00 0.00 65 1012.6
20260906031015 86 134 2.0 7.0 0.00 0.00 0.00 65 1012.5
20260906030555 86 138 2.0 7.0 0.00 0.00 0.00 63 1012.4
20260906030028 86 126 3.0 8.0 0.00 0.00 0.00 63 1012.3
20260906025506 87 144 2.0 7.0 0.00 0.00 0.00 62 1012.1
20260906025049 87 71 2.0 5.0 0.00 0.00 0.00 61 1012.0
20260906024520 87 100 2.0 7.0 0.00 0.00 0.00 60 1012.0
20260906024104 87 110 2.0 7.0 0.00 0.00 0.00 60 1011.9
20260906023542 87 90 2.0 7.0 0.00 0.00 0.00 59 1011.8
20260906023015 87 105 1.0 7.0 0.00 0.00 0.00 58 1011.7
20260906022556 87 80 1.0 7.0 0.00 0.00 0.00 57 1011.5
20260906022037 88 124 2.0 9.0 0.00 0.00 0.00 57 1011.3
20260906021512 88 88 2.0 9.0 0.00 0.00 0.00 57 1011.3
20260906021049 88 86 0.0 6.0 0.00 0.00 0.00 56 1011.3
20260906020528 89 77 1.0 7.0 0.00 0.00 0.00 56 1011.1
20260906020103 89 92 0.0 9.0 0.00 0.00 0.00 56 1011.0
20260906015541 89 118 2.0 9.0 0.00 0.00 0.00 55 1010.9
20260906015021 89 136 3.0 9.0 0.00 0.00 0.00 55 1010.7
20260906014605 89 119 2.0 8.0 0.00 0.00 0.00 55 1010.7
20260906014034 89 134 3.0 9.0 0.00 0.00 0.00 55 1010.7
20260906013513 90 126 2.0 9.0 0.00 0.00 0.00 54 1010.7
20260906013053 90 99 3.0 10.0 0.00 0.00 0.00 54 1010.6
20260906012528 90 78 3.0 10.0 0.00 0.00 0.00 53 1010.6
20260906012006 91 130 3.0 10.0 0.00 0.00 0.00 53 1010.5
20260906011543 91 123 3.0 9.0 0.00 0.00 0.00 53 1010.4
20260906011020 91 94 3.0 8.0 0.00 0.00 0.00 53 1010.4
20260906010603 92 130 3.0 9.0 0.00 0.00 0.00 52 1010.4
20260906010037 92 137 3.0 9.0 0.00 0.00 0.00 52 1010.4
20260906005515 92 61 4.0 9.0 0.00 0.00 0.00 51 1010.4
20260906005102 92 140 2.0 9.0 0.00 0.00 0.00 51 1010.5
20260906004530 93 107 2.0 6.0 0.00 0.00 0.00 50 1010.4
20260906004009 93 95 2.0 10.0 0.00 0.00 0.00 50 1010.4
20260906003551 94 70 4.0 11.0 0.00 0.00 0.00 50 1010.4
20260906003024 94 87 2.0 9.0 0.00 0.00 0.00 49 1010.4
20260906002502 94 121 4.0 9.0 0.00 0.00 0.00 48 1010.3
20260906002043 95 121 4.0 9.0 0.00 0.00 0.00 47 1010.3
20260906001515 96 90 4.0 9.0 0.00 0.00 0.00 46 1010.3
20260906001056 96 109 4.0 9.0 0.00 0.00 0.00 46 1010.2
20260906000532 96 71 1.0 9.0 0.00 0.00 0.00 47 1010.2
20260906000004 96 96 3.0 10.0 0.00 0.00 0.00 46 1010.2
20260905235544 96 71 2.0 13.0 0.00 0.00 0.00 46 1010.2
20260905235021 97 57 5.0 13.0 0.00 0.00 0.00 45 1010.1
20260905234557 97 88 4.0 12.0 0.00 0.00 0.00 45 1010.0
20260905234034 97 74 3.0 11.0 0.00 0.00 0.00 42 1010.0
20260905233510 98 125 4.0 9.0 0.00 0.00 0.00 39 1009.9
20260905233048 98 105 1.0 8.0 0.00 0.00 0.00 40 1009.9
20260905232526 98 142 2.0 7.0 0.00 0.00 0.00 39 1010.0
20260905232003 98 138 3.0 7.0 0.00 0.00 0.00 40 1010.0
20260905231540 98 139 2.0 8.0 0.00 0.00 0.00 39 1009.9
20260905231016 97 149 3.0 8.0 0.00 0.00 0.00 40 1009.9
20260905230557 97 148 1.0 7.0 0.00 0.00 0.00 40 1009.9
20260905230030 98 82 2.0 8.0 0.00 0.00 0.00 39 1009.9
20260905225506 99 151 3.0 8.0 0.00 0.00 0.00 38 1009.9
20260905225047 99 150 2.0 10.0 0.00 0.00 0.00 38 1010.0
20260905224527 99 64 1.0 10.0 0.00 0.00 0.00 40 1010.0
20260905224104 99 107 3.0 10.0 0.00 0.00 0.00 39 1009.9
20260905223536 99 111 2.0 9.0 0.00 0.00 0.00 39 1009.9
20260905223009 99 136 3.0 9.0 0.00 0.00 0.00 39 1010.0
20260905222551 100 154 2.0 7.0 0.00 0.00 0.00 38 1010.0
20260905222026 99 207 0.0 7.0 0.00 0.00 0.00 39 1010.0
20260905221605 99 123 1.0 9.0 0.00 0.00 0.00 39 1010.0
20260905221041 99 148 3.0 9.0 0.00 0.00 0.00 38 1010.1
20260905220517 98 112 2.0 8.0 0.00 0.00 0.00 38 1010.1
20260905220055 99 138 3.0 9.0 0.00 0.00 0.00 39 1010.1
20260905215531 99 159 2.0 9.0 0.00 0.00 0.00 38 1010.1
20260905215007 99 121 1.0 8.0 0.00 0.00 0.00 40 1010.1
20260905214544 99 134 1.0 4.0 0.00 0.00 0.00 38 1010.2
20260905214027 99 136 0.0 7.0 0.00 0.00 0.00 39 1010.2
20260905213602 99 136 3.0 7.0 0.00 0.00 0.00 38 1010.3
20260905213035 99 153 0.0 8.0 0.00 0.00 0.00 39 1010.3
20260905212512 99 117 2.0 6.0 0.00 0.00 0.00 39 1010.3
20260905212052 99 117 1.0 6.0 0.00 0.00 0.00 39 1010.5
20260905211525 100 104 1.0 8.0 0.00 0.00 0.00 38 1010.5
20260905211002 100 79 1.0 6.0 0.00 0.00 0.00 40 1010.7
20260905210544 99 87 1.0 6.0 0.00 0.00 0.00 42 1010.7
20260905210016 99 122 0.0 5.0 0.00 0.00 0.00 40 1010.7
20260905205557 98 122 1.0 8.0 0.00 0.00 0.00 40 1010.8
20260905205034 98 127 1.0 9.0 0.00 0.00 0.00 40 1010.9
20260905204509 97 141 4.0 9.0 0.00 0.00 0.00 41 1011.0
20260905204047 97 261 2.0 10.0 0.00 0.00 0.00 40 1011.1
20260905203524 98 74 1.0 5.0 0.00 0.00 0.00 42 1011.1
20260905203106 97 70 2.0 8.0 0.00 0.00 0.00 45 1011.1
20260905202538 98 153 1.0 8.0 0.00 0.00 0.00 41 1011.2
20260905202015 98 75 3.0 8.0 0.00 0.00 0.00 43 1011.2
20260905201553 97 67 0.0 5.0 0.00 0.00 0.00 44 1011.2
20260905201028 97 144 1.0 8.0 0.00 0.00 0.00 42 1011.3
20260905200506 97 194 0.0 8.0 0.00 0.00 0.00 43 1011.5
20260905200048 97 74 2.0 9.0 0.00 0.00 0.00 42 1011.6
20260905195520 97 125 3.0 12.0 0.00 0.00 0.00 43 1011.7
20260905195101 97 176 2.0 12.0 0.00 0.00 0.00 41 1011.8
20260905194540 98 132 4.0 9.0 0.00 0.00 0.00 40 1011.8
20260905194014 97 261 2.0 7.0 0.00 0.00 0.00 41 1011.9
20260905193553 97 187 1.0 5.0 0.00 0.00 0.00 43 1012.0
20260905193030 96 196 1.0 10.0 0.00 0.00 0.00 44 1012.1
20260905192506 97 96 5.0 10.0 0.00 0.00 0.00 44 1012.2
20260905192047 96 170 1.0 8.0 0.00 0.00 0.00 46 1012.2
20260905191526 96 167 2.0 8.0 0.00 0.00 0.00 46 1012.3
20260905191106 95 265 2.0 4.0 0.00 0.00 0.00 46 1012.4
20260905190539 95 209 0.0 9.0 0.00 0.00 0.00 47 1012.5
20260905190014 95 133 4.0 9.0 0.00 0.00 0.00 45 1012.7
20260905185558 95 178 5.0 10.0 0.00 0.00 0.00 45 1012.7
20260905185030 95 252 1.0 9.0 0.00 0.00 0.00 48 1012.9
20260905184516 95 130 3.0 11.0 0.00 0.00 0.00 48 1013.0
20260905184046 95 136 4.0 11.0 0.00 0.00 0.00 49 1013.1
20260905183525 94 88 3.0 8.0 0.00 0.00 0.00 49 1013.1
20260905183118 94 32 3.0 6.0 0.00 0.00 0.00 50 1013.1
20260905182539 94 211 1.0 4.0 0.00 0.00 0.00 47 1013.1
20260905182015 94 143 1.0 8.0 0.00 0.00 0.00 48 1013.3
20260905181554 94 188 2.0 8.0 0.00 0.00 0.00 50 1013.3
20260905181031 93 140 2.0 5.0 0.00 0.00 0.00 51 1013.5
20260905180508 93 119 2.0 11.0 0.00 0.00 0.00 53 1013.5
20260905180047 93 155 5.0 11.0 0.00 0.00 0.00 50 1013.7
20260905175523 93 157 4.0 11.0 0.00 0.00 0.00 48 1013.8
20260905175001 92 132 2.0 10.0 0.00 0.00 0.00 51 1013.8
20260905174541 92 167 4.0 10.0 0.00 0.00 0.00 50 1014.0
20260905174016 92 146 2.0 10.0 0.00 0.00 0.00 50 1014.0
20260905173557 92 131 5.0 9.0 0.00 0.00 0.00 51 1014.0
20260905173031 92 217 1.0 7.0 0.00 0.00 0.00 54 1014.0
20260905172508 92 162 1.0 10.0 0.00 0.00 0.00 56 1014.1
20260905172050 91 186 4.0 10.0 0.00 0.00 0.00 56 1014.2
20260905171527 91 228 0.0 8.0 0.00 0.00 0.00 55 1014.2
20260905171106 91 171 2.0 8.0 0.00 0.00 0.00 56 1014.3
20260905170542 91 136 3.0 7.0 0.00 0.00 0.00 58 1014.3
20260905170017 90 145 4.0 10.0 0.00 0.00 0.00 58 1014.4
20260905165602 90 161 5.0 10.0 0.00 0.00 0.00 57 1014.5
20260905165037 90 189 0.0 9.0 0.00 0.00 0.00 58 1014.4
20260905164511 89 173 3.0 9.0 0.00 0.00 0.00 61 1014.5
20260905164054 89 172 1.0 8.0 0.00 0.00 0.00 58 1014.5
20260905163532 89 225 3.0 8.0 0.00 0.00 0.00 59 1014.5
20260905163009 89 163 2.0 9.0 0.00 0.00 0.00 59 1014.6
20260905162554 89 248 2.0 9.0 0.00 0.00 0.00 60 1014.5
20260905162031 89 153 4.0 10.0 0.00 0.00 0.00 61 1014.5
20260905161518 88 200 4.0 10.0 0.00 0.00 0.00 62 1014.6
20260905161059 88 123 2.0 9.0 0.00 0.00 0.00 63 1014.5
20260905160535 88 148 4.0 9.0 0.00 0.00 0.00 64 1014.4
20260905160017 87 148 2.0 9.0 0.00 0.00 0.00 64 1014.5
20260905155553 87 132 3.0 12.0 0.00 0.00 0.00 65 1014.4
20260905155029 87 168 3.0 12.0 0.00 0.00 0.00 65 1014.4
20260905154502 87 137 2.0 8.0 0.00 0.00 0.00 67 1014.4
20260905154044 86 200 1.0 8.0 0.00 0.00 0.00 67 1014.4
20260905153521 86 225 2.0 11.0 0.00 0.00 0.00 68 1014.4
20260905153110 86 150 4.0 11.0 0.00 0.00 0.00 69 1014.5
20260905152536 86 139 5.0 9.0 0.00 0.00 0.00 70 1014.4
20260905152012 85 149 2.0 8.0 0.00 0.00 0.00 72 1014.4
20260905151552 85 152 2.0 8.0 0.00 0.00 0.00 73 1014.4
20260905151028 85 234 1.0 8.0 0.00 0.00 0.00 74 1014.3
20260905150505 84 207 2.0 9.0 0.00 0.00 0.00 74 1014.4
20260905150045 84 160 4.0 9.0 0.00 0.00 0.00 75 1014.5
20260905145524 84 144 3.0 8.0 0.00 0.00 0.00 76 1014.5
20260905145103 83 140 3.0 9.0 0.00 0.00 0.00 79 1014.5
20260905144538 83 140 2.0 9.0 0.00 0.00 0.00 80 1014.5
20260905144013 82 130 2.0 9.0 0.00 0.00 0.00 83 1014.6
20260905143555 82 254 1.0 4.0 0.00 0.00 0.00 84 1014.6
20260905143031 81 136 1.0 7.0 0.00 0.00 0.00 84 1014.6
20260905142507 81 246 1.0 3.0 0.00 0.00 0.00 86 1014.6
20260905142049 81 180 0.0 3.0 0.00 0.00 0.00 87 1014.6
20260905141526 80 180 0.0 4.0 0.00 0.00 0.00 89 1014.6
20260905141006 80 185 1.0 4.0 0.00 0.00 0.00 89 1014.5
20260905140546 79 185 0.0 7.0 0.00 0.00 0.00 90 1014.5
20260905140024 79 140 3.0 8.0 0.00 0.00 0.00 90 1014.5
20260905135502 79 151 2.0 9.0 0.00 0.00 0.00 91 1014.5
20260905135043 78 156 4.0 9.0 0.00 0.00 0.00 91 1014.4
20260905134518 78 184 1.0 7.0 0.00 0.00 0.00 91 1014.3
20260905134059 78 148 3.0 5.0 0.00 0.00 0.00 91 1014.3
20260905133535 77 159 1.0 5.0 0.00 0.00 0.00 92 1014.3
20260905133013 77 149 1.0 5.0 0.00 0.00 0.00 91 1014.3
20260905132552 76 150 2.0 5.0 0.00 0.00 0.00 92 1014.2
20260905132029 76 150 0.0 0.0 0.00 0.00 0.00 92 1014.1
20260905131505 75 150 0.0 0.0 0.00 0.06 0.00 92 1014.0
20260905131046 75 150 0.0 0.0 0.00 0.06 0.00 92 1014.0
20260905130523 75 150 0.0 0.0 0.00 0.06 0.00 92 1013.9
20260905130105 75 150 0.0 0.0 0.00 0.06 0.00 92 1013.8
20260905125538 75 150 0.0 0.0 0.00 0.06 0.00 92 1013.8
20260905125018 75 150 0.0 0.0 0.00 0.06 0.00 92 1013.8
20260905124556 74 150 0.0 0.0 0.00 0.06 0.00 92 1013.7
20260905124031 74 150 0.0 0.0 0.00 0.06 0.00 92 1013.7
20260905123508 74 150 0.0 0.0 0.00 0.06 0.00 92 1013.6
20260905123049 74 150 0.0 0.0 0.00 0.06 0.00 92 1013.5
20260905122529 74 150 0.0 0.0 0.00 0.06 0.00 92 1013.4
20260905122004 74 150 0.0 0.0 0.00 0.06 0.00 92 1013.4
20260905121543 74 150 0.0 0.0 0.00 0.06 0.00 92 1013.4
20260905121020 74 150 0.0 0.0 0.00 0.06 0.00 91 1013.4
20260905120604 74 150 0.0 0.0 0.00 0.06 0.00 91 1013.2
20260905120038 74 150 0.0 0.0 0.00 0.06 0.00 91 1013.2
20260905115515 74 150 0.0 0.0 0.00 0.06 0.00 91 1013.1
20260905115056 74 150 0.0 0.0 0.00 0.06 0.00 91 1013.2
20260905114532 74 150 0.0 0.0 0.00 0.06 0.00 91 1013.2
20260905114009 74 150 0.0 0.0 0.00 0.06 0.00 91 1013.2
20260905113551 74 150 0.0 0.0 0.00 0.06 0.00 91 1013.1
20260905113029 75 150 0.0 0.0 0.00 0.06 0.00 91 1013.1
20260905112504 75 150 0.0 0.0 0.00 0.06 0.00 91 1013.1
20260905112045 75 150 0.0 0.0 0.00 0.06 0.00 91 1013.1
20260905111522 75 150 0.0 0.0 0.00 0.06 0.00 91 1013.0
20260905111102 75 150 0.0 0.0 0.00 0.06 0.00 91 1012.9
20260905110538 75 150 0.0 0.0 0.00 0.06 0.00 91 1012.9
20260905110015 75 150 0.0 0.0 0.00 0.06 0.00 91 1012.8
20260905105556 75 150 0.0 0.0 0.00 0.06 0.00 91 1012.9
20260905105035 75 150 0.0 0.0 0.00 0.06 0.00 90 1012.8
20260905104509 76 150 0.0 0.0 0.00 0.06 0.00 90 1012.8
20260905104050 76 150 0.0 0.0 0.00 0.06 0.00 90 1012.8
20260905103530 76 150 0.0 0.0 0.00 0.06 0.00 90 1012.8
20260905103004 76 150 0.0 0.0 0.00 0.06 0.00 90 1012.9
20260905102544 76 150 0.0 0.0 0.00 0.06 0.00 90 1012.9
20260905102021 76 150 0.0 0.0 0.00 0.06 0.00 90 1012.9
20260905101602 76 150 0.0 0.0 0.00 0.06 0.00 90 1012.9
20260905101038 77 150 0.0 0.0 0.00 0.06 0.00 90 1012.9
20260905100515 77 150 0.0 0.0 0.00 0.06 0.00 90 1012.9
20260905100120 77 150 0.0 0.0 0.00 0.06 0.00 89 1012.9
20260905095534 77 150 0.0 0.0 0.00 0.06 0.00 89 1012.9
20260905095010 77 150 0.0 0.0 0.00 0.06 0.00 89 1012.9
20260905094552 77 150 0.0 0.0 0.00 0.06 0.00 89 1012.8
20260905094028 77 150 0.0 0.0 0.00 0.06 0.00 88 1012.9
20260905093505 77 150 0.0 1.0 0.00 0.06 0.00 88 1012.9
20260905093047 78 150 0.0 2.0 0.00 0.06 0.00 88 1012.9
20260905092523 78 150 0.0 2.0 0.00 0.06 0.00 88 1012.8
20260905092104 78 150 0.0 2.0 0.00 0.06 0.00 88 1012.8
20260905091544 78 150 0.0 3.0 0.00 0.06 0.00 88 1012.8
20260905091018 78 150 0.0 3.0 0.00 0.06 0.00 88 1012.8
20260905090600 78 150 0.0 3.0 0.00 0.06 0.00 88 1012.8
20260905090052 78 150 0.0 3.0 0.00 0.06 0.00 88 1012.9
20260905085514 78 150 1.0 3.0 0.00 0.06 0.00 87 1012.8
20260905085058 78 150 0.0 3.0 0.00 0.06 0.00 87 1012.9
20260905084532 78 150 0.0 6.0 0.00 0.06 0.00 87 1013.0
20260905084012 78 150 1.0 6.0 0.00 0.06 0.00 87 1013.0
20260905083552 78 124 0.0 8.0 0.00 0.06 0.00 87 1013.0
20260905083034 78 124 0.0 8.0 0.00 0.06 0.00 87 1012.9
20260905082501 78 148 0.0 1.0 0.00 0.06 0.00 86 1012.9
20260905082043 78 148 0.0 2.0 0.00 0.06 0.00 86 1012.9
20260905081521 78 148 0.0 2.0 0.00 0.06 0.00 86 1012.9
20260905081101 79 148 0.0 3.0 0.00 0.06 0.00 86 1013.0
20260905080542 79 148 1.0 3.0 0.00 0.06 0.00 85 1013.0
20260905080016 79 148 0.0 6.0 0.00 0.06 0.00 85 1013.0
20260905075557 79 157 1.0 3.0 0.00 0.06 0.00 85 1013.0
20260905075034 79 157 1.0 5.0 0.00 0.06 0.00 85 1013.0
20260905074511 79 157 1.0 5.0 0.00 0.06 0.00 84 1013.0
20260905074053 79 157 0.0 6.0 0.00 0.06 0.00 84 1013.0
20260905073531 79 148 2.0 6.0 0.00 0.06 0.00 83 1013.1
20260905073007 79 170 2.0 5.0 0.00 0.06 0.00 83 1013.1
20260905072549 79 170 1.0 4.0 0.00 0.06 0.00 83 1013.1
20260905072025 79 170 1.0 3.0 0.00 0.06 0.00 83 1013.1
20260905071503 80 170 1.0 4.0 0.00 0.06 0.00 82 1013.2
20260905071047 80 170 1.0 4.0 0.00 0.06 0.00 82 1013.2
20260905070520 80 170 1.0 4.0 0.00 0.06 0.00 82 1013.3
20260905070105 80 170 1.0 7.0 0.00 0.06 0.00 82 1013.3
20260905065539 80 163 3.0 7.0 0.00 0.06 0.00 82 1013.3
20260905065019 80 155 2.0 6.0 0.00 0.06 0.00 81 1013.4
20260905064559 80 158 1.0 5.0 0.00 0.06 0.00 81 1013.3
20260905064038 80 155 1.0 4.0 0.00 0.06 0.00 80 1013.4
20260905063511 80 175 1.0 5.0 0.00 0.06 0.00 80 1013.4
20260905063055 80 141 1.0 7.0 0.00 0.06 0.00 80 1013.5
20260905062530 80 138 1.0 7.0 0.00 0.06 0.00 79 1013.4
20260905062011 80 151 0.0 3.0 0.00 0.06 0.00 79 1013.4
20260905061551 80 151 1.0 3.0 0.00 0.06 0.00 79 1013.5
20260905061027 81 151 0.0 5.0 0.00 0.06 0.00 78 1013.6
20260905060504 81 153 2.0 5.0 0.00 0.06 0.00 78 1013.5
20260905060051 81 156 1.0 5.0 0.00 0.06 0.00 77 1013.6
20260905055524 81 161 3.0 7.0 0.00 0.06 0.00 77 1013.4
20260905055001 81 170 2.0 7.0 0.00 0.06 0.00 77 1013.5
20260905054544 81 148 2.0 6.0 0.00 0.06 0.00 77 1013.5
20260905054021 81 150 1.0 7.0 0.00 0.06 0.00 77 1013.7
20260905053603 81 146 2.0 12.0 0.00 0.06 0.00 76 1013.5
20260905053041 81 149 3.0 12.0 0.00 0.06 0.00 76 1013.4
20260905052517 81 147 5.0 9.0 0.00 0.06 0.00 76 1013.4
20260905052058 81 177 4.0 9.0 0.00 0.06 0.00 76 1013.5
20260905051540 81 153 2.0 7.0 0.00 0.06 0.06 76 1013.6
20260905051013 81 147 1.0 6.0 0.00 0.06 0.06 76 1013.6
20260905050555 81 150 1.0 7.0 0.00 0.06 0.06 76 1013.7
20260905050034 81 150 2.0 7.0 0.00 0.06 0.06 76 1013.7
20260905045510 81 136 2.0 4.0 0.00 0.06 0.06 76 1013.7
20260905045052 81 148 1.0 5.0 0.00 0.06 0.06 76 1013.6
20260905044537 82 148 2.0 5.0 0.00 0.06 0.06 76 1013.6